Weather History for KIND - March, 2014

Change the Weather History Date:

Wednesday, March 26, 2014

  Actual Average Record
Temperature  
Mean Temperature 28 °F 46 °F  
Max Temperature 41 °F 56 °F 80 °F (1907)
Min Temperature 15 °F 36 °F 8 °F (1955)
Degree Days  
Heating Degree Days 37 19  
Month to date heating degree days 787 616  
Since 1 July heating degree days 5584 4759  
Cooling Degree Days 0 0  
Month to date cooling degree days 0 0  
Year to date cooling degree days 0 0  
Moisture  
Dew Point 9 °F    
Average Humidity 53    
Maximum Humidity 80    
Minimum Humidity 25    
Precipitation  
Precipitation 0.00 in 0.12 in 1.98 in (1948)
Month to date precipitation 1.58 2.92  
Year to date precipitation 6.37 7.90  
Snow  
Snow 0.00 in 0.00 in 2.10 in (1930)
Month to date snowfall 3.1 2.4  
Since 1 July snowfall 55.4 25.5  
Snow Depth 0.00 in    
Sea Level Pressure  
Sea Level Pressure 30.28 in    
Wind  
Wind Speed 8 mph (SW)    
Max Wind Speed 15 mph    
Max Gust Speed 19 mph    
Visibility 10 miles    
Events      
T = Trace of Precipitation, MM = Missing Value Source: NWS Daily Summary

Daily Weather History Graph

Daily Weather History Graph

Search for Another Location

Airport or City:

Trip Planner

Search our weather history database for the weather conditions in past years. The results will help you decide how hot, cold, wet, or windy it might be!

Date:

Astronomy

Mar. 26, 2014 Rise Set
Actual Time 7:38 AM EDT 8:03 PM EDT
Civil Twilight 7:11 AM EDT 8:30 PM EDT
Nautical Twilight 6:40 AM EDT 9:02 PM EDT
Astronomical Twilight 6:07 AM EDT 9:34 PM EDT
Moon 4:46 AM EDT (3/26) 3:41 PM EDT (3/26)
Length of Visible Light 13h 18m
Length of Day
12h 24m
Waning Crescent, 22% of the Moon is Illuminated
Mar 26
Waning Crescent
Mar 30
New
Apr 7
First Quarter
Apr 15
Full
Apr 22
Last Quarter

Hourly Weather History & Observations

Time (EDT) Temp. Windchill Dew Point Humidity Pressure Visibility Wind Dir Wind Speed Gust Speed Precip Events Conditions
12:54 AM 24.1 °F 15.2 °F 10.9 °F 57% 30.25 in 10.0 mi WNW 8.1 mph - N/A   Overcast
1:54 AM 23.0 °F 11.1 °F 9.0 °F 55% 30.26 in 10.0 mi WNW 12.7 mph - N/A   Overcast
2:54 AM 21.9 °F 12.5 °F 10.9 °F 63% 30.26 in 10.0 mi WNW 8.1 mph - N/A   Mostly Cloudy
3:54 AM 21.0 °F 11.4 °F 10.9 °F 65% 30.27 in 10.0 mi WNW 8.1 mph - N/A   Mostly Cloudy
4:54 AM 18.0 °F 9.8 °F 10.0 °F 71% 30.28 in 10.0 mi NW 5.8 mph - N/A   Clear
5:54 AM 17.1 °F 10.0 °F 10.0 °F 74% 30.29 in 10.0 mi WNW 4.6 mph - N/A   Clear
6:54 AM 16.0 °F 8.8 °F 10.0 °F 77% 30.32 in 10.0 mi West 4.6 mph - N/A   Clear
7:54 AM 16.0 °F 8.8 °F 10.0 °F 77% 30.34 in 10.0 mi West 4.6 mph - N/A   Partly Cloudy
8:54 AM 19.9 °F 14.9 °F 12.9 °F 74% 30.37 in 10.0 mi NW 3.5 mph - N/A   Clear
9:54 AM 24.1 °F - 10.9 °F 57% 30.38 in 10.0 mi Calm Calm - N/A   Clear
10:54 AM 26.1 °F 21.9 °F 9.0 °F 49% 30.38 in 10.0 mi Variable 3.5 mph - N/A   Partly Cloudy
11:54 AM 28.0 °F 22.8 °F 9.0 °F 45% 30.37 in 10.0 mi Variable 4.6 mph - N/A   Partly Cloudy
12:54 PM 30.0 °F 24.1 °F 8.1 °F 40% 30.36 in 10.0 mi South 5.8 mph - N/A   Clear
1:54 PM 33.1 °F 25.5 °F 9.0 °F 37% 30.34 in 10.0 mi South 9.2 mph - N/A   Partly Cloudy
2:54 PM 35.1 °F 27.9 °F 8.1 °F 33% 30.30 in 10.0 mi South 9.2 mph - N/A   Partly Cloudy
3:54 PM 37.0 °F 31.6 °F 6.1 °F 28% 30.27 in 10.0 mi Variable 6.9 mph - N/A   Partly Cloudy
4:54 PM 39.9 °F 33.4 °F 6.1 °F 25% 30.24 in 10.0 mi SSW 10.4 mph - N/A   Partly Cloudy
5:54 PM 39.9 °F 34.5 °F 6.1 °F 25% 30.22 in 10.0 mi South 8.1 mph - N/A   Partly Cloudy
6:54 PM 39.0 °F 31.4 °F 7.0 °F 27% 30.22 in 10.0 mi SSW 12.7 mph - N/A   Partly Cloudy
7:54 PM 37.0 °F 29.3 °F 7.0 °F 29% 30.21 in 10.0 mi South 11.5 mph - N/A   Partly Cloudy
8:54 PM 35.1 °F 28.6 °F 7.0 °F 31% 30.21 in 10.0 mi South 8.1 mph - N/A   Partly Cloudy
9:54 PM 34.0 °F 26.6 °F 8.1 °F 34% 30.21 in 10.0 mi South 9.2 mph - N/A   Partly Cloudy
10:54 PM 32.0 °F 25.6 °F 9.0 °F 38% 30.20 in 10.0 mi SSE 6.9 mph - N/A   Partly Cloudy
11:54 PM 33.1 °F 24.9 °F 10.0 °F 38% 30.19 in 10.0 mi SSE 10.4 mph - N/A   Partly Cloudy